SA7BGG-5 Weather Reports


Display with metric or nautical units.
time (UTC)temp
F
wind
direction
speed
MPH
gust
MPH
rain 1hr
in
rain 24hr
in
rain mn
in
humidity
%
barometer
mb
20260506193002 46 241 0.0 0.0 0.00 0.00 0.00 65 1017.0
20260506192502 46 242 0.0 0.0 0.00 0.00 0.00 65 1017.0
20260506192001 46 242 0.0 0.0 0.00 0.00 0.00 65 1017.0
20260506191501 47 242 0.0 0.0 0.00 0.00 0.00 64 1017.0
20260506191001 47 242 0.0 0.0 0.00 0.00 0.00 64 1017.0
20260506190500 47 242 0.0 0.0 0.00 0.00 0.00 62 1017.0
20260506190000 47 242 0.0 0.0 0.00 0.00 0.00 62 1017.0
20260506185505 48 242 0.0 0.0 0.00 0.00 0.00 61 1017.0
20260506185004 48 242 0.0 0.0 0.00 0.00 0.00 61 1017.0
20260506184504 48 242 0.0 0.0 0.00 0.00 0.00 59 1017.0
20260506184004 48 242 0.0 0.0 0.00 0.00 0.00 59 1017.0
20260506183503 49 242 0.0 0.0 0.00 0.00 0.00 58 1017.0
20260506183003 49 242 0.0 0.0 0.00 0.00 0.00 58 1017.0
20260506182503 50 213 0.0 0.0 0.00 0.00 0.00 57 1017.0
20260506182002 50 213 0.0 0.0 0.00 0.00 0.00 57 1017.0
20260506181502 50 213 0.0 0.0 0.00 0.00 0.00 56 1016.0
20260506181002 50 213 0.0 0.0 0.00 0.00 0.00 56 1016.0
20260506180501 51 213 0.0 0.0 0.00 0.00 0.00 54 1016.0
20260506180001 51 213 0.0 0.0 0.00 0.00 0.00 54 1016.0
20260506175501 52 213 0.0 0.0 0.00 0.00 0.00 53 1016.0
20260506174505 52 213 0.0 0.0 0.00 0.00 0.00 53 1016.0
20260506174004 52 213 0.0 0.0 0.00 0.00 0.00 53 1016.0
20260506173504 52 213 0.0 0.0 0.00 0.00 0.00 52 1016.0
20260506173004 52 213 0.0 0.0 0.00 0.00 0.00 52 1016.0
20260506172503 53 213 0.0 0.0 0.00 0.00 0.00 51 1016.0
20260506172003 53 213 0.0 0.0 0.00 0.00 0.00 51 1016.0
20260506171503 53 231 0.0 0.0 0.00 0.00 0.00 49 1016.0
20260506171002 53 231 0.0 0.0 0.00 0.00 0.00 49 1016.0
20260506170502 53 231 0.0 0.0 0.00 0.00 0.00 47 1016.0
20260506170002 53 231 0.0 0.0 0.00 0.00 0.00 47 1016.0
20260506165501 53 231 0.0 0.0 0.00 0.00 0.00 48 1016.0
20260506165001 53 231 0.0 0.0 0.00 0.00 0.00 48 1016.0
20260506164501 54 231 0.0 0.0 0.00 0.00 0.00 48 1016.0
20260506164000 54 231 0.0 0.0 0.00 0.00 0.00 48 1016.0
20260506163500 54 231 0.0 0.0 0.00 0.00 0.00 47 1016.0
20260506163005 54 231 0.0 0.0 0.00 0.00 0.00 47 1016.0
20260506162505 55 231 0.0 0.0 0.00 0.00 0.00 44 1016.0
20260506162004 55 231 0.0 0.0 0.00 0.00 0.00 44 1016.0
20260506161504 55 231 0.0 0.0 0.00 0.00 0.00 44 1016.0
20260506161004 55 231 0.0 0.0 0.00 0.00 0.00 44 1016.0
20260506160503 55 245 0.0 0.0 0.00 0.00 0.00 42 1016.0
20260506160003 55 245 0.0 0.0 0.00 0.00 0.00 42 1016.0
20260506155503 55 245 0.0 0.0 0.00 0.00 0.00 42 1016.0
20260506155002 55 245 0.0 0.0 0.00 0.00 0.00 42 1016.0
20260506154502 55 245 0.0 0.0 0.00 0.00 0.00 43 1016.0
20260506154002 55 245 0.0 0.0 0.00 0.00 0.00 43 1016.0
20260506153502 55 245 0.0 0.0 0.00 0.00 0.00 43 1016.0
20260506153001 55 245 0.0 0.0 0.00 0.00 0.00 43 1016.0
20260506152501 55 245 0.0 0.0 0.00 0.00 0.00 43 1016.0
20260506152000 55 245 0.0 0.0 0.00 0.00 0.00 43 1016.0
20260506151505 55 245 0.0 0.0 0.00 0.00 0.00 43 1016.0
20260506151004 55 245 0.0 0.0 0.00 0.00 0.00 43 1016.0
20260506150504 55 253 0.0 0.0 0.00 0.00 0.00 41 1016.0
20260506150004 55 253 0.0 0.0 0.00 0.00 0.00 41 1016.0
20260506145503 55 247 0.0 0.0 0.00 0.00 0.00 40 1016.0
20260506145003 55 247 0.0 0.0 0.00 0.00 0.00 40 1016.0
20260506144503 55 243 0.0 0.0 0.00 0.00 0.00 41 1016.0
20260506144003 55 243 0.0 0.0 0.00 0.00 0.00 41 1016.0
20260506143503 56 243 0.0 0.0 0.00 0.00 0.00 44 1016.0
20260506143002 56 243 0.0 0.0 0.00 0.00 0.00 44 1016.0
20260506142502 56 251 0.0 0.0 0.00 0.00 0.00 43 1016.0
20260506142002 56 251 0.0 0.0 0.00 0.00 0.00 43 1016.0
20260506141501 56 251 0.0 0.0 0.00 0.00 0.00 43 1016.0
20260506141001 56 251 0.0 0.0 0.00 0.00 0.00 43 1016.0
20260506140501 56 251 0.0 0.0 0.00 0.00 0.00 41 1016.0
20260506140000 56 251 0.0 0.0 0.00 0.00 0.00 41 1016.0
20260506135500 56 251 0.0 0.0 0.00 0.00 0.00 41 1016.0
20260506135005 56 251 0.0 0.0 0.00 0.00 0.00 41 1016.0
20260506134504 56 251 0.0 0.0 0.00 0.00 0.00 41 1016.0
20260506134004 56 251 0.0 0.0 0.00 0.00 0.00 41 1016.0
20260506133504 56 251 0.0 0.0 0.00 0.00 0.00 38 1016.0
20260506133004 56 251 0.0 0.0 0.00 0.00 0.00 38 1016.0
20260506132503 56 251 0.0 0.0 0.00 0.00 0.00 40 1016.0
20260506132003 56 251 0.0 0.0 0.00 0.00 0.00 40 1016.0
20260506131503 56 251 0.0 0.0 0.00 0.00 0.00 38 1016.0
20260506131002 56 251 0.0 0.0 0.00 0.00 0.00 38 1016.0
20260506130502 56 251 0.0 0.0 0.00 0.00 0.00 38 1016.0
20260506130002 56 251 0.0 0.0 0.00 0.00 0.00 38 1016.0
20260506125501 56 261 0.0 0.0 0.00 0.00 0.00 39 1016.0
20260506125001 56 261 0.0 0.0 0.00 0.00 0.00 39 1016.0
20260506124500 56 261 0.0 0.0 0.00 0.00 0.00 38 1016.0
20260506124000 56 261 0.0 0.0 0.00 0.00 0.00 38 1016.0
20260506123004 56 261 0.0 0.0 0.00 0.00 0.00 37 1016.0
20260506122504 56 246 0.0 0.0 0.00 0.00 0.00 37 1016.0
20260506122004 56 246 0.0 0.0 0.00 0.00 0.00 37 1016.0
20260506121504 56 246 0.0 0.0 0.00 0.00 0.00 42 1016.0
20260506121003 56 246 0.0 0.0 0.00 0.00 0.00 42 1016.0
20260506120503 56 252 0.0 0.0 0.00 0.00 0.00 42 1016.0
20260506120003 56 252 0.0 0.0 0.00 0.00 0.00 42 1016.0
20260506115503 56 252 0.0 0.0 0.00 0.00 0.00 41 1016.0
20260506115002 56 252 0.0 0.0 0.00 0.00 0.00 41 1016.0
20260506114502 56 254 0.0 0.0 0.00 0.00 0.00 39 1016.0
20260506114002 56 254 0.0 0.0 0.00 0.00 0.00 39 1016.0
20260506113502 56 254 0.0 0.0 0.00 0.00 0.00 39 1016.0
20260506113001 56 254 0.0 0.0 0.00 0.00 0.00 39 1016.0
20260506112501 56 254 0.0 0.0 0.00 0.00 0.00 38 1016.0
20260506112001 56 254 0.0 0.0 0.00 0.00 0.00 38 1016.0
20260506111500 57 252 0.0 0.0 0.00 0.00 0.00 38 1016.0
20260506111000 57 252 0.0 0.0 0.00 0.00 0.00 38 1016.0
20260506110505 57 252 0.0 0.0 0.00 0.00 0.00 41 1016.0
20260506110005 57 252 0.0 0.0 0.00 0.00 0.00 41 1016.0
20260506105504 57 255 0.0 0.0 0.00 0.00 0.00 41 1016.0
20260506105004 57 255 0.0 0.0 0.00 0.00 0.00 41 1016.0
20260506104504 57 270 0.0 0.0 0.00 0.00 0.00 44 1016.0
20260506104003 57 270 0.0 0.0 0.00 0.00 0.00 44 1016.0
20260506103503 56 270 0.0 0.0 0.00 0.00 0.00 50 1016.0
20260506103003 56 270 0.0 0.0 0.00 0.00 0.00 50 1016.0
20260506102503 56 270 0.0 0.0 0.00 0.00 0.00 54 1016.0
20260506102002 56 270 0.0 0.0 0.00 0.00 0.00 54 1016.0
20260506101502 56 270 0.0 0.0 0.00 0.00 0.00 58 1016.0
20260506101002 56 270 0.0 0.0 0.00 0.00 0.00 58 1016.0
20260506100502 55 270 0.0 0.0 0.00 0.00 0.00 64 1016.0
20260506100001 55 270 0.0 0.0 0.00 0.00 0.00 64 1016.0
20260506095501 55 270 0.0 0.0 0.00 0.00 0.00 66 1016.0
20260506095001 55 270 0.0 0.0 0.00 0.00 0.00 66 1016.0
20260506094501 54 270 0.0 0.0 0.00 0.00 0.00 67 1016.0
20260506094000 54 270 0.0 0.0 0.00 0.00 0.00 67 1016.0
20260506093500 54 270 0.0 0.0 0.00 0.00 0.00 67 1016.0
20260506093005 54 270 0.0 0.0 0.00 0.00 0.00 67 1016.0
20260506092505 54 270 0.0 0.0 0.00 0.00 0.00 67 1016.0
20260506092004 54 270 0.0 0.0 0.00 0.00 0.00 67 1016.0
20260506091504 54 270 0.0 0.0 0.00 0.00 0.00 66 1016.0
20260506091003 54 270 0.0 0.0 0.00 0.00 0.00 66 1016.0
20260506090503 54 270 0.0 0.0 0.00 0.00 0.00 64 1016.0
20260506090003 54 270 0.0 0.0 0.00 0.00 0.00 64 1016.0
20260506085503 54 270 0.0 0.0 0.00 0.00 0.00 65 1016.0
20260506085002 54 270 0.0 0.0 0.00 0.00 0.00 65 1016.0
20260506084502 53 270 0.0 0.0 0.00 0.00 0.00 67 1016.0
20260506084002 53 270 0.0 0.0 0.00 0.00 0.00 67 1016.0
20260506083502 53 294 0.0 0.0 0.00 0.00 0.00 70 1016.0
20260506083001 53 294 0.0 0.0 0.00 0.00 0.00 70 1016.0
20260506082501 51 287 0.0 0.0 0.00 0.00 0.00 73 1016.0
20260506082001 51 287 0.0 0.0 0.00 0.00 0.00 73 1016.0
20260506081500 51 287 0.0 0.0 0.00 0.00 0.00 78 1016.0
20260506081000 51 287 0.0 0.0 0.00 0.00 0.00 78 1016.0
20260506080505 49 287 0.0 0.0 0.00 0.00 0.00 82 1016.0
20260506073503 47 230 0.0 0.0 0.00 0.00 0.00 84 1015.0
20260506073003 47 230 0.0 0.0 0.00 0.00 0.00 84 1015.0
20260506072502 46 230 0.0 0.0 0.00 0.00 0.00 84 1015.0
20260506072002 46 230 0.0 0.0 0.00 0.00 0.00 84 1015.0
20260506071502 45 230 0.0 0.0 0.00 0.00 0.00 84 1015.0
20260506071001 45 230 0.0 0.0 0.00 0.00 0.00 84 1015.0
20260506070501 45 219 0.0 0.0 0.00 0.00 0.00 84 1015.0
20260506062504 43 225 0.0 0.0 0.00 0.00 0.00 81 1015.0
20260506062003 43 225 0.0 0.0 0.00 0.00 0.00 81 1015.0
20260506061503 42 225 0.0 0.0 0.00 0.00 0.00 82 1015.0
20260506061003 42 225 0.0 0.0 0.00 0.00 0.00 82 1015.0
20260506060503 42 208 0.0 0.0 0.00 0.00 0.00 79 1015.0
20260506051004 39 208 0.0 0.0 0.00 0.00 0.00 67 1015.0
20260506050504 39 49 0.0 0.0 0.00 0.00 0.00 67 1015.0
20260506045003 39 49 0.0 0.0 0.00 0.00 0.00 67 1015.0
20260506044503 39 45 0.0 0.0 0.00 0.00 0.00 67 1015.0
20260506044002 39 45 0.0 0.0 0.00 0.00 0.00 67 1015.0
20260506043502 39 45 0.0 0.0 0.00 0.00 0.00 67 1015.0
20260506043002 39 45 0.0 0.0 0.00 0.00 0.00 67 1015.0
20260506042501 39 45 0.0 0.0 0.00 0.00 0.00 69 1015.0
20260506042001 39 45 0.0 0.0 0.00 0.00 0.00 69 1015.0
20260506041501 38 57 0.0 0.0 0.00 0.00 0.00 71 1015.0
20260506041000 38 57 0.0 0.0 0.00 0.00 0.00 71 1015.0
20260506040500 37 46 0.0 0.0 0.00 0.00 0.00 72 1015.0
20260506035505 36 58 0.0 0.0 0.00 0.00 0.00 71 1015.0
20260506035004 36 58 0.0 0.0 0.00 0.00 0.00 71 1015.0
20260506034504 36 53 0.0 0.0 0.00 0.00 0.00 71 1015.0
20260506034004 36 53 0.0 0.0 0.00 0.00 0.00 71 1015.0
20260506033503 36 53 0.0 0.0 0.00 0.00 0.00 70 1015.0
20260506033004 36 53 0.0 0.0 0.00 0.00 0.00 70 1015.0
20260506032503 36 53 0.0 0.0 0.00 0.00 0.00 70 1015.0
20260506032002 36 53 0.0 0.0 0.00 0.00 0.00 70 1015.0
20260506031502 36 46 0.0 0.0 0.00 0.00 0.00 70 1015.0
20260506031002 36 46 0.0 0.0 0.00 0.00 0.00 70 1015.0
20260506030501 37 46 0.0 0.0 0.00 0.00 0.00 69 1015.0
20260506030001 37 46 0.0 0.0 0.00 0.00 0.00 69 1015.0
20260506025501 37 57 0.0 0.0 0.00 0.00 0.00 69 1015.0
20260506025001 37 57 0.0 0.0 0.00 0.00 0.00 69 1015.0
20260506024500 37 57 0.0 0.0 0.00 0.00 0.00 68 1015.0
20260506024000 37 57 0.0 0.0 0.00 0.00 0.00 68 1015.0
20260506023505 37 61 0.0 0.0 0.00 0.00 0.00 67 1015.0
20260506023004 37 61 0.0 0.0 0.00 0.00 0.00 67 1015.0
20260506022504 38 61 0.0 0.0 0.00 0.00 0.00 67 1015.0
20260506022003 38 61 0.0 0.0 0.00 0.00 0.00 67 1015.0
20260506021503 38 61 0.0 0.0 0.00 0.00 0.00 66 1015.0
20260506021003 38 61 0.0 0.0 0.00 0.00 0.00 66 1015.0
20260506020502 38 54 0.0 0.0 0.00 0.00 0.00 66 1015.0
20260506020002 38 54 0.0 0.0 0.00 0.00 0.00 66 1015.0
20260506015502 38 63 0.0 0.0 0.00 0.00 0.00 65 1015.0
20260506015001 38 63 0.0 0.0 0.00 0.00 0.00 65 1015.0
20260506014501 38 54 0.0 0.0 0.00 0.00 0.00 65 1015.0
20260506014001 38 54 0.0 0.0 0.00 0.00 0.00 65 1015.0
20260506013501 39 57 0.0 0.0 0.00 0.00 0.00 65 1015.0
20260506013000 39 57 0.0 0.0 0.00 0.00 0.00 65 1015.0
20260506012505 39 55 0.0 0.0 0.00 0.00 0.00 65 1015.0
20260506012005 39 55 0.0 0.0 0.00 0.00 0.00 65 1015.0
20260506011504 39 55 0.0 0.0 0.00 0.00 0.00 64 1015.0
20260506011004 39 55 0.0 0.0 0.00 0.00 0.00 64 1015.0
20260506010504 39 55 0.0 0.0 0.00 0.00 0.00 64 1015.0
20260506010004 39 55 0.0 0.0 0.00 0.00 0.00 64 1015.0
20260506005503 39 55 0.0 0.0 0.00 0.00 0.00 64 1015.0
20260506005003 39 55 0.0 0.0 0.00 0.00 0.00 64 1015.0
20260506004503 39 58 0.0 0.0 0.00 0.00 0.00 64 1015.0
20260506004002 39 58 0.0 0.0 0.00 0.00 0.00 64 1015.0
20260506003502 39 58 0.0 0.0 0.00 0.00 0.00 64 1015.0
20260506003002 39 58 0.0 0.0 0.00 0.00 0.00 64 1015.0
20260506002501 40 58 0.0 0.0 0.00 0.00 0.00 64 1015.0
20260506002001 40 58 0.0 0.0 0.00 0.00 0.00 64 1015.0
20260506001501 40 58 0.0 0.0 0.00 0.00 0.00 64 1015.0
20260506001000 40 58 0.0 0.0 0.00 0.00 0.00 64 1015.0
20260506000500 40 58 0.0 0.0 0.00 0.00 0.00 65 1015.0
20260506000005 40 58 0.0 0.0 0.00 0.00 0.00 65 1015.0
20260505235504 40 69 0.0 0.0 0.00 0.00 0.00 65 1015.0
20260505235004 40 69 0.0 0.0 0.00 0.00 0.00 65 1015.0
20260505234504 40 69 0.0 0.0 0.00 0.00 0.00 65 1015.0
20260505234003 40 69 0.0 0.0 0.00 0.00 0.00 65 1015.0
20260505233503 40 42 0.0 0.0 0.00 0.00 0.00 64 1015.0
20260505233003 40 42 0.0 0.0 0.00 0.00 0.00 64 1015.0
20260505232502 41 34 0.0 0.0 0.00 0.00 0.00 63 1015.0
20260505232002 41 34 0.0 0.0 0.00 0.00 0.00 63 1015.0
20260505231502 42 34 0.0 0.0 0.00 0.00 0.00 62 1015.0
20260505231002 42 34 0.0 0.0 0.00 0.00 0.00 62 1015.0
20260505230501 42 259 0.0 0.0 0.00 0.00 0.00 62 1015.0
20260505230001 42 259 0.0 0.0 0.00 0.00 0.00 62 1015.0
20260505225501 43 259 0.0 0.0 0.00 0.00 0.00 62 1015.0
20260505225000 43 259 0.0 0.0 0.00 0.00 0.00 62 1015.0
20260505224004 43 259 0.0 0.0 0.00 0.00 0.00 61 1015.0
20260505223504 43 259 0.0 0.0 0.00 0.00 0.00 60 1015.0
20260505223004 43 259 0.0 0.0 0.00 0.00 0.00 60 1015.0
20260505222504 44 259 0.0 0.0 0.00 0.00 0.00 59 1015.0
20260505222003 44 259 0.0 0.0 0.00 0.00 0.00 59 1015.0
20260505221503 44 259 0.0 0.0 0.00 0.00 0.00 59 1015.0
20260505221003 44 259 0.0 0.0 0.00 0.00 0.00 59 1015.0
20260505220502 45 259 0.0 0.0 0.00 0.00 0.00 58 1015.0
20260505220002 45 259 0.0 0.0 0.00 0.00 0.00 58 1015.0
20260505215502 45 259 0.0 0.0 0.00 0.00 0.00 58 1015.0
20260505215001 45 259 0.0 0.0 0.00 0.00 0.00 58 1015.0
20260505214501 45 259 0.0 0.0 0.00 0.00 0.00 57 1015.0
20260505214001 45 259 0.0 0.0 0.00 0.00 0.00 57 1015.0
20260505213500 46 253 0.0 0.0 0.00 0.00 0.00 56 1015.0
20260505213000 46 253 0.0 0.0 0.00 0.00 0.00 56 1015.0
20260505212505 46 254 0.0 0.0 0.00 0.00 0.00 55 1015.0
20260505212004 46 254 0.0 0.0 0.00 0.00 0.00 55 1015.0
20260505211504 46 252 0.0 0.0 0.00 0.00 0.00 54 1015.0
20260505211004 46 252 0.0 0.0 0.00 0.00 0.00 54 1015.0
20260505210504 47 252 0.0 0.0 0.00 0.00 0.00 54 1015.0
20260505210003 47 252 0.0 0.0 0.00 0.00 0.00 54 1015.0
20260505205503 47 252 0.0 0.0 0.00 0.00 0.00 53 1015.0
20260505205003 47 252 0.0 0.0 0.00 0.00 0.00 53 1015.0
20260505204502 48 252 0.0 0.0 0.00 0.00 0.00 51 1015.0
20260505204002 48 252 0.0 0.0 0.00 0.00 0.00 51 1015.0
20260505203502 48 252 0.0 0.0 0.00 0.00 0.00 50 1015.0
20260505203001 48 252 0.0 0.0 0.00 0.00 0.00 50 1015.0
20260505202501 49 252 0.0 0.0 0.00 0.00 0.00 50 1015.0
20260505202001 49 252 0.0 0.0 0.00 0.00 0.00 50 1015.0
20260505201501 49 254 0.0 0.0 0.00 0.00 0.00 49 1015.0
20260505201000 49 254 0.0 0.0 0.00 0.00 0.00 49 1015.0
20260505200500 49 254 0.0 0.0 0.00 0.00 0.00 48 1015.0
20260505200005 49 254 0.0 0.0 0.00 0.00 0.00 48 1015.0
20260505195504 50 254 0.0 0.0 0.00 0.00 0.00 47 1015.0
20260505195004 50 254 0.0 0.0 0.00 0.00 0.00 47 1015.0
20260505194504 51 254 0.0 0.0 0.00 0.00 0.00 46 1015.0
20260505194003 51 254 0.0 0.0 0.00 0.00 0.00 46 1015.0
20260505193503 51 254 0.0 0.0 0.00 0.00 0.00 45 1015.0